Location: Campillo
(40.8621°N, 4.2488°W)
Time: 19:38:00
(UTC+00:00)

Cosmos 1933 Rocket - Pass Details

Date: 27 September 2021
Orbit: 607 x 629 km, 82.5° (Epoch: 25 October)

Event Time Altitude Azimuth Distance (km) Brightness Sun altitude
Rises 05:13:25 0° 332° (NNW) 2,902 6.8 -11.4°
Reaches altitude 10° 05:16:31 10° 308° (NW) 1,995 5.8 -10.8°
Maximum altitude 05:18:55 15° 275° (W) 1,707 5.2 -10.4°
Enters shadow 05:19:54 14° 260° (W) 1,757 5.2 -10.2°
